STARLINK-1918 (46768 NORAD) Tracking and Keplerian Element Data

This shows tracking and keplerian element data for the satellite.

Feedback or suggestion? Click here.




ElementValue
Catalog46768
NameSTARLINK-1918
Epoch Orbit562
Epoch Day331.16668981
Epoch Year2020
RAAN1.1977
Inclination53.0556
Eccentricity0.000118
Argument of Perigee65.8836
Mean Anonmoly329.192
Mean Motion15.48384464
Decay Rate-0.01080801
L11 46768U 20074AF 20331.16668981 -.01080801 00000-0 -22161-1 0 9991
L22 46768 53.0556 1.1977 0001180 65.8836 329.1920 15.48384464 5624

Live tracking and technical data element details for STARLINK-1918 (NORAD 46768). STARLINK-1918 can be tracked NOW for your location showing map with azimuth and elevation plus other details from your city location.

Track the satellite on the map from your city or location and see movement details for azimuth, elevation, latitude, longitude, range, height, and movement on the map or in text.







IsCatalogInMostPopularTable: catalog: 46768, numindb: 7
Update: records affected: 1



GetName: 46768 STARLINK-1918

Hit Count: updated at: Thu, 26 Nov 2020 17:35:19 GMT